DW4509 Weather Reports


time (UTC)temp
C
wind
direction
speed
KPH
gust
KPH
rain 1hr
cm
rain 24hr
cm
rain mn
cm
humidity
%
barometer
mb
20260508070700 10 331 0.0 0.0 0.00 0.00 0.00 86 1017.7
20260508064459 10 331 0.0 0.0 0.00 0.00 0.00 87 1017.6
20260508063522 10 331 0.0 0.0 0.00 0.00 0.00 87 1017.4
20260508062520 9 331 0.0 0.0 0.00 0.00 0.00 87 1017.4
20260508061446 9 331 0.0 0.0 0.00 0.00 0.00 87 1017.3
20260508060437 8 331 0.0 0.0 0.00 0.00 0.00 87 1017.2
20260508055448 8 331 0.0 0.0 0.00 0.00 0.00 87 1017.1
20260508054504 8 331 0.0 0.0 0.00 0.00 0.00 87 1017.0
20260508053523 8 331 0.0 0.0 0.00 0.00 0.00 87 1017.0
20260508052528 8 331 0.0 0.0 0.00 0.00 0.00 86 1016.9
20260508051517 8 331 0.0 0.0 0.00 0.00 0.00 86 1016.9
20260508050521 8 331 0.0 0.0 0.00 0.00 0.00 86 1016.8
20260508045521 8 331 0.0 0.0 0.00 0.00 0.00 86 1016.8
20260508043345 8 331 0.0 0.0 0.00 0.00 0.00 85 1016.6
20260508042322 8 330 0.0 0.0 0.00 0.00 0.00 85 1016.7
20260508041325 8 331 0.0 0.0 0.00 0.00 0.00 85 1016.7
20260508040324 8 330 0.0 0.0 0.00 0.00 0.00 85 1016.6
20260508034138 8 331 0.0 0.0 0.00 0.00 0.00 84 1016.6
20260508033150 8 331 0.0 0.0 0.00 0.00 0.00 84 1016.5
20260508032130 8 330 0.0 0.0 0.00 0.00 0.00 84 1016.6
20260508031122 8 331 0.0 0.0 0.00 0.00 0.00 83 1016.6
20260508030144 8 331 0.0 0.0 0.00 0.00 0.00 83 1016.5
20260508024026 9 331 0.0 0.0 0.00 0.00 0.00 82 1016.6
20260508023038 9 331 0.0 0.0 0.00 0.00 0.00 82 1016.5
20260508022031 9 331 0.0 0.0 0.00 0.00 0.00 82 1016.6
20260508021042 9 331 0.0 0.0 0.00 0.00 0.00 81 1016.4
20260508020106 9 331 0.0 0.0 0.00 0.00 0.00 81 1016.4
20260508013925 9 331 0.0 0.0 0.00 0.00 0.00 81 1016.4
20260508012928 10 331 0.0 0.0 0.00 0.00 0.00 81 1016.4
20260508011856 10 331 0.0 0.0 0.00 0.00 0.00 80 1016.5
20260508010914 10 331 0.0 0.0 0.00 0.00 0.00 80 1016.5
20260508005846 10 331 0.0 0.0 0.00 0.00 0.00 80 1016.5
20260508004903 10 330 0.0 0.0 0.00 0.00 0.00 80 1016.4
20260508003917 10 330 0.0 0.0 0.00 0.00 0.00 79 1016.4
20260508002918 10 318 0.0 0.0 0.00 0.00 0.00 79 1016.5
20260508001941 10 352 0.0 0.0 0.00 0.00 0.00 79 1016.5
20260508000958 10 117 0.0 0.0 0.00 0.00 0.00 80 1016.6
20260508000019 10 121 0.0 0.0 0.00 0.00 0.00 79 1016.6
20260507233926 10 122 0.0 0.0 0.00 0.00 0.00 79 1016.6
20260507231726 10 192 0.0 0.0 0.00 0.00 0.00 77 1016.6
20260507230655 10 300 0.0 0.0 0.00 0.00 0.00 77 1016.7
20260507225653 10 217 0.0 0.0 0.00 0.00 0.00 76 1016.7
20260507224711 10 271 0.0 0.0 0.00 0.00 0.00 77 1016.7
20260507223639 10 138 0.0 0.0 0.00 0.00 0.00 76 1016.6
20260507222620 10 326 0.0 0.0 0.00 0.00 0.00 76 1016.6
20260507220418 10 7 0.0 0.0 0.00 0.00 0.00 77 1016.6
20260507215432 10 8 0.0 0.0 0.00 0.00 0.00 76 1016.7
20260507214413 10 8 0.0 0.0 0.00 0.00 0.00 76 1016.6
20260507213436 10 8 0.0 0.0 0.00 0.00 0.00 75 1016.6
20260507212438 11 8 0.0 0.0 0.00 0.00 0.00 75 1016.6
20260507211458 11 8 0.0 0.0 0.00 0.00 0.00 73 1016.4
20260507210425 11 10 0.0 0.0 0.00 0.00 0.00 73 1016.5
20260507204316 11 258 0.0 0.0 0.00 0.00 0.00 73 1016.4
20260507202131 11 101 0.0 0.0 0.00 0.00 0.00 72 1016.3
20260507195950 11 113 0.0 0.0 0.00 0.00 0.00 71 1016.0
20260507195015 11 114 0.0 0.0 0.00 0.00 0.00 71 1016.0
20260507191713 12 43 0.0 0.0 0.00 0.00 0.00 73 1015.8
20260507190655 12 349 0.0 4.8 0.00 0.00 0.00 71 1015.8
20260507185623 12 349 0.0 0.0 0.00 0.00 0.00 70 1015.7
20260507184630 12 205 0.0 0.0 0.00 0.00 0.00 68 1015.6
20260507183648 13 32 0.0 0.0 0.00 0.00 0.00 67 1015.6
20260507181512 13 302 0.0 0.0 0.00 0.00 0.00 65 1015.5
20260507180523 13 161 0.0 0.0 0.00 0.00 0.00 66 1015.4
20260507175542 14 154 0.0 0.0 0.00 0.00 0.00 64 1015.4
20260507174549 14 304 0.0 0.0 0.00 0.00 0.00 65 1015.5
20260507173614 15 105 0.0 0.0 0.00 0.00 0.00 62 1015.5
20260507172549 15 238 0.0 0.0 0.00 0.00 0.00 61 1015.5
20260507171544 15 117 0.0 0.0 0.00 0.00 0.00 61 1015.5
20260507170608 15 281 0.0 0.0 0.00 0.00 0.00 63 1015.5
20260507165558 15 243 0.0 0.0 0.00 0.00 0.00 62 1015.5
20260507164544 16 139 0.0 0.0 0.00 0.00 0.00 60 1015.5
20260507163510 16 184 0.0 1.6 0.00 0.00 0.00 61 1015.5
20260507162456 16 334 0.0 6.4 0.00 0.00 0.00 61 1015.5
20260507161504 15 227 0.0 0.0 0.00 0.00 0.00 63 1015.6
20260507160449 15 165 0.0 4.8 0.00 0.00 0.00 63 1015.6
20260507155422 14 193 0.0 0.0 0.00 0.00 0.00 63 1015.8
20260507154416 14 160 0.0 0.0 0.00 0.00 0.00 65 1015.8
20260507153410 14 46 0.0 1.6 0.00 0.00 0.00 61 1015.9
20260507152423 15 286 0.0 0.0 0.00 0.00 0.00 64 1015.9
20260507151431 15 328 0.0 0.0 0.00 0.00 0.00 60 1016.0
20260507150434 15 80 0.0 0.0 0.00 0.00 0.00 58 1016.0
20260507143139 15 139 0.0 1.6 0.00 0.00 0.00 61 1016.0
20260507142146 15 340 0.0 0.0 0.00 0.00 0.00 59 1016.2
20260507141146 15 148 0.0 1.6 0.00 0.00 0.00 60 1016.3
20260507140126 15 13 0.0 1.6 0.00 0.00 0.00 59 1016.3
20260507135105 15 257 0.0 1.6 0.00 0.00 0.00 57 1016.3
20260507134037 15 110 0.0 0.0 0.00 0.00 0.00 59 1016.3
20260507133101 15 242 0.0 0.0 0.00 0.00 0.00 61 1016.3
20260507132115 15 113 0.0 6.4 0.00 0.00 0.00 57 1016.3
20260507130012 15 125 0.0 1.6 0.00 0.00 0.00 58 1016.4
20260507123836 14 352 0.0 0.0 0.00 0.00 0.00 59 1016.5
20260507122857 14 268 0.0 1.6 0.00 0.00 0.00 61 1016.5
20260507121915 13 32 0.0 0.0 0.00 0.00 0.00 63 1016.5
20260507120855 13 304 0.0 0.0 0.00 0.00 0.00 66 1016.7
20260507115833 13 11 0.0 0.0 0.00 0.00 0.00 64 1016.8
20260507114841 13 81 0.0 0.0 0.00 0.00 0.00 66 1016.8
20260507113840 13 88 0.0 0.0 0.00 0.00 0.00 62 1016.8
20260507111633 13 128 0.0 1.6 0.00 0.00 0.00 60 1016.9
20260507110616 13 278 0.0 0.0 0.00 0.00 0.00 63 1017.0
20260507102224 13 6 0.0 3.2 0.00 0.00 0.00 66 1017.2
20260507101210 13 124 0.0 0.0 0.00 0.00 0.00 67 1017.2
20260507095133 13 125 0.0 0.0 0.00 0.00 0.00 65 1017.3
20260507094143 13 18 0.0 0.0 0.00 0.00 0.00 66 1017.1
20260507093152 13 79 0.0 0.0 0.00 0.00 0.00 67 1017.1
20260507092125 13 243 0.0 0.0 0.00 0.00 0.00 67 1017.1
20260507091057 12 217 0.0 4.8 0.00 0.00 0.00 68 1017.3
20260507090023 12 53 0.0 0.0 0.00 0.00 0.00 71 1017.3
20260507083831 11 250 0.0 1.6 0.00 0.00 0.00 71 1017.4
20260507082830 11 94 0.0 1.6 0.00 0.00 0.00 73 1017.4
20260507080718 11 27 0.0 0.0 0.00 0.00 0.00 73 1017.4
20260507075715 11 136 0.0 0.0 0.00 0.00 0.00 74 1017.5
20260507074716 10 133 0.0 0.0 0.00 0.00 0.00 75 1017.5
20260507072549 10 0 0.0 0.0 0.00 0.00 0.00 76 1017.5